Location: Unspecified
(0.0000°N, 0.0000°E)
Time: 04:41:15
(UTC+00:00)

Daily predictions for brighter satellites

Satellite Brightness Start Highest point End
(mag) Time Altitude Azimuth Time Altitude Azimuth Time Altitude Azimuth
Atlas Centaur 2 3.4 03:07:32 60° ENE 03:07:32 60° ENE 03:14:11 10° ENE
BLOCK DM-SL R/B 4.2 03:25:04 50° E 03:25:04 50° E 03:30:40 10° E
SL-16 R/B 4.2 03:28:51 22° NNW 03:28:51 22° NNW 03:30:51 10° NNW
USA 234 3.8 03:18:12 10° SE 03:29:43 18° NNW 03:31:07 10° NNW
MAQSAT/ARIANE V 3.6 03:30:58 70° WNW 03:31:47 76° NNW 03:36:03 10° ENE
CZ-3 R/B 4.0 03:26:39 40° SSW 03:35:36 53° SSE 03:44:57 10° E
ARIANE 5 R/B 3.9 03:39:51 60° SE 03:39:51 60° SE 03:51:29 10° E
H-II Stage 2 4.2 03:21:28 10° WNW 03:56:00 66° NNE 04:00:46 10° ESE
ADEOS II 2.4 03:52:44 10° NNE 03:57:54 60° ESE 03:58:48 52° SE
Cosmos 2016 Rocket 4.1 04:02:12 59° WNW 04:02:12 59° WNW 04:07:54 10° N
Okean-O 3.9 04:00:46 10° N 04:03:09 31° N 04:03:09 31° N
Cosmos 2369 Rocket 3.4 04:04:42 20° SSE 04:08:06 39° ESE 04:13:21 10° NE
GPS 2-14 Rocket1 3.6 04:10:20 46° ENE 04:10:20 46° ENE 04:13:06 10° ENE
CENTAUR R/B 3.9 04:02:37 10° N 04:10:36 51° ENE 04:18:20 10° SE
ARGOS Delta rocket 4.0 04:05:26 10° N 04:10:54 75° W 04:11:20 70° WSW
Cosmos 1725 Rocket 3.9 04:11:43 44° SSW 04:13:50 78° W 04:20:07 10° N
Cosmos 1864 Rocket 4.4 04:11:55 43° SSW 04:14:10 80° W 04:20:29 10° N
USA 215 3.5 04:09:42 10° NNE 04:15:56 50° NW 04:17:21 43° W
Cosmos 2285 Rocket 4.2 04:18:13 47° W 04:18:35 48° WNW 04:24:35 10° N
SL-8 R/B 3.8 04:20:24 58° NW 04:20:28 58° NW 04:25:09 10° NNE
Meteor 1-31 Rocket 3.2 04:17:29 10° NNE 04:21:23 62° E 04:22:18 47° SSE
ARIANE 5 R/B 2.8 04:21:26 39° WSW 04:24:06 68° S 04:27:15 10° E
BREEZE-M DEB (TANK) 3.8 04:24:46 16° NNW 04:26:52 45° NE 04:32:01 10° SE
ADEOS Rocket 2.9 04:22:31 10° N 04:28:18 84° WNW 04:33:10 19° SSW
ARIANE 5 DEB (SYLDA) 3.7 04:23:32 30° W 04:29:27 77° S 04:33:16 10° E
Cosmos 1602 Rocket 3.4 04:26:07 10° N 04:30:26 73° W 04:32:07 37° S
MOZ.5/SAFIR/RUBIN 5/SL-8 3.9 04:31:43 46° SW 04:32:32 52° WSW 04:37:10 10° NNW
BLOCK DM-SL R/B 2.7 04:34:25 42° W 04:35:41 88° N 04:41:23 10° E
Ariane H10 2.6 04:36:39 30° S 04:36:39 30° S 04:39:40 10° ESE
Ariane Rocket 3.0 04:34:12 10° NNE 04:39:15 80° ESE 04:43:54 12° S
CSL-04 Rocket 4.2 04:39:30 10° NNE 04:44:55 59° ESE 04:50:24 10° S
Delta 202 3.8 04:43:58 28° WSW 04:47:24 76° NNW 04:52:42 10° ENE
Ariane H10-3 3.7 04:44:54 27° W 04:48:05 89° S 05:29:30 10° E
Cosmos 1626 Rocket 4.0 04:45:41 10° NNW 04:49:45 37° W 04:51:33 26° SW
CZ-4 R/B 4.3 04:47:19 10° ENE 04:50:00 17° ESE 04:52:42 10° SE
Cosmos 1741 Rocket 4.4 04:46:52 10° NW 04:51:39 37° WSW 04:56:27 10° S
MOS 1 Rocket 4.0 04:47:02 10° NNE 04:52:25 66° ESE 04:57:40 10° S
ATLAS 5 CENTAUR R/B 4.4 04:48:19 10° N 04:54:03 33° ENE 04:59:49 10° SE
CZ-4B R/B 4.2 04:50:47 10° N 04:54:11 37° W 04:55:18 30° WSW
Centaur D-1AR AC-41 4.1 04:51:02 18° W 04:55:05 35° NNW 04:58:34 10° NE
Atlas Centaur 2 4.1 04:50:12 17° W 04:55:46 33° NNW 05:02:49 10° NNE
GPS 2-12 Rocket1 4.1 04:55:39 25° SW 04:57:07 29° SSW 05:01:18 10° SE
Cosmos 2082 Rocket 3.4 04:54:15 10° N 04:59:39 46° ENE 05:05:03 10° SSE
Milstar 3 Cent rocket 4.1 04:53:06 21° WSW 05:00:02 87° NNW 05:20:13 10° ENE
SJ-6F 4.4 04:55:54 10° N 05:00:03 66° W 05:04:11 10° SSW
Cosmos 1346 Rocket 2.7 04:56:15 10° NNW 05:00:13 68° W 05:04:10 10° S
Cosmos 1943 Rocket 3.1 04:59:05 10° S 05:04:20 46° ESE 05:09:35 10° NNE
BREEZE M DEB (TANK) 4.4 05:01:22 10° NNW 05:04:47 23° NE 05:06:53 10° E
Ariane H10 2.0 05:04:00 24° WSW 05:05:24 49° S 05:10:01 10° ESE
Cosmos 1743 4.3 05:05:48 17° W 05:05:48 17° W 05:08:20 10° NW
USA 234 4.4 05:03:04 10° S 05:07:21 19° SW 05:10:44 13° W
Maqsat-B 4.3 05:05:25 10° WNW 05:09:23 56° NNE 05:22:53 10° E
Cosmos 2228 3.0 05:06:13 10° SSW 05:10:32 62° W 05:14:52 10° N
Cosmos 1464 Rocket 4.1 05:05:07 10° S 05:11:17 79° E 05:17:23 10° N
Cosmos 1666 3.2 05:11:21 10° SSW 05:14:59 39° W 05:18:37 10° NNW
Palapa 6 Rocket 4.4 05:12:45 15° WSW 05:16:01 26° SSW 05:19:54 10° SSE
Timation 2 Rocket 3.9 05:12:58 10° NNW 05:18:45 55° WSW 05:24:36 10° S
IRS-1A Rocket 4.2 05:15:25 10° N 05:20:56 78° WNW 05:26:36 10° SSW
Meteor 2-9 Rocket 4.5 05:17:08 10° SSW 05:22:18 45° W 05:27:36 10° NNW
Cosmos 1066 Rocket 4.2 05:17:16 10° NNW 05:22:31 56° W 05:27:45 10° S
Maqsat-H 3.5 05:21:16 10° WNW 05:25:37 60° NNE 05:42:48 10° E
CSL-04 Debris 4.3 05:20:37 10° N 05:25:53 59° WNW 05:31:14 10° SSW
Tsikada Rocket 4.2 05:20:14 10° NNW 05:26:08 48° W 05:32:08 10° SSW
ARIANE 44LP R/B 3.5 05:27:01 11° WSW 05:29:45 62° S 05:40:21 10° E
FALCON 9 R/B 3.1 05:27:27 10° W 05:30:57 33° SSW 05:39:50 10° SE
Cosmos 1953 Rocket 3.5 05:26:48 10° NNW 05:31:06 66° W 05:35:23 10° S
Cosmos 1842 4.2 05:29:40 10° N 05:33:31 53° E 05:37:24 10° SSE
SPOT 3 Rocket 3.7 05:29:00 10° NNE 05:34:10 81° ESE 05:39:20 10° S
Centaur AC-72 4.1 05:31:44 10° SW 05:37:45 55° SSE 05:57:46 10° ENE
BREEZE-M DEB (TANK) 4.1 05:37:55 10° NW 05:52:56 51° WSW 05:57:03 10° SSE
